Regional Weather Roundup
Issued by NWS

Home | Current Version | Previous Version | Text Only | Print | Product List | Glossary On
Versions: 1 2 3 4 5 6 7 8 9 10 11 12 13 14 15 16 17 18 19 20 21 22 23 24 25 26 27
000
ASUS45 KBOU 291910
RWRCO

WEATHER ROUNDUP FOR COLORADO
NATIONAL WEATHER SERVICE DENVER/BOULDER CO
100 PM MDT THU SEP 29 2016

NOTE: "FAIR" INDICATES FEW OR NO CLOUDS BELOW 12000 FEET WITH NO
SIGNIFICANT WEATHER AND/OR OBSTRUCTIONS TO VISIBILITY.

COZ001>005-013-030-031-292000-
...NORTHWEST COLORADO...

CITY           SKY/WX    TMP DP  RH WIND       PRES   REMARKS
CRAIG          FAIR      68  44  42 W8        30.42F
HAYDEN         FAIR      66  39  37 W9        30.43F
MEEKER         LGT RAIN  63  47  55 W16       30.44S
MOUNT WERNER   NOT AVBL
STEAMBOAT SPGS FAIR      66  38  34 S7        30.42F
WALDEN           N/A     70  28  21 S6        30.48F
$$

COZ006>008-011-292000-
...WEST CENTRAL VALLEYS...

CITY           SKY/WX    TMP DP  RH WIND       PRES   REMARKS
GRAND JUNCTION LGT RAIN  60  57  89 SW8       30.39F
MONTROSE       CLOUDY    67  42  40 NW3       30.43F
EAGLE          CLOUDY    70  34  26 W12G17    30.42F
RIFLE          CLOUDY    69  47  45 W21       30.39F
DELTA          LGT RAIN  67  48  50 SW5       30.41F
NUCLA          LGT RAIN  59  54  82 W5        30.49S
$$

COZ017>023-064>068-292000-
...SOUTHWEST COLORADO...

CITY           SKY/WX    TMP DP  RH WIND       PRES   REMARKS
DURANGO        LGT RAIN  61  46  57 CALM      30.51F
CORTEZ         CLOUDY    65  43  44 SE10G22   30.45S
PAGOSA SPRINGS PTSUNNY   65  31  27 SW5       30.56S
TELLURIDE      CLOUDY    55  37  49 CALM      30.61F
WOLF CREEK PAS CLOUDY    45  30  57 MISG      30.80F
$$

COZ009-010-012-014-032>034-037-058>063-292000-
...CENTRAL COLORADO...

CITY           SKY/WX    TMP DP  RH WIND       PRES   REMARKS
ASPEN          PTSUNNY   65  32  29 N9        30.47S
BUENA VISTA    FAIR      72  25  17 SE14G21   30.49F
COPPER MTN     PTSUNNY   59  21  23 S8G22     30.74F
BERTHOUD PASS  CLOUDY    48  34  57 SE14G26   30.77F
COTTONWOOD PAS FAIR      64  21  19 SE22      30.60F
GUNNISON       FAIR      64  33  31 SW7       30.50F
KREMMLING      FAIR      73  21  14 W5        30.43F
LEADVILLE      FAIR      60  23  24 S7        30.59F
SALIDA         FAIR      73  28  18 S10G17    30.54F
SUNLIGHT       LGT RAIN  52  41  66 SW7G18    30.70S
WILKERSON PASS FAIR      57  25  28 SW7G17    30.74F
$$

COZ069>075-292000-
...SAN LUIS VALLEY/SANGRE DE CRISTO MOUNTAINS...

CITY           SKY/WX    TMP DP  RH WIND       PRES   REMARKS
ALAMOSA        FAIR      71  31  22 SW13G18   30.50F
LA VETA PASS   NOT AVBL
SAGUACHE       NOT AVBL
$$

COZ035-036-038>040-292000-
...NORTHERN COLORADO FRONT RANGE...

CITY           SKY/WX    TMP DP  RH WIND       PRES   REMARKS
DENVER INTL AP FAIR      78  36  21 VRB5      30.31F
DMNS CITY PARK   N/A     77  38  25 NE7       30.30F
AURORA         MOSUNNY   80  36  20 NE10      30.32F
FRONT RANGE AP MOSUNNY   81  37  21 N10G23    30.32F
ERIE MUNI ARPT FAIR      74  36  24 NE7       30.31F
BOULDER MUN AP FAIR      72  37  28 N3        30.31F
CENTENNIAL     FAIR      81  36  19 N9        30.32F
BROOMFIELD     PTSUNNY   73  37  27 NE6       30.34F
FORT COLLINS   FAIR      73  39  29 E5        30.30F
LONGMONT       FAIR      75  40  28 NE5       30.32F
$$

COZ041-046-047-076>085-087-088-292000-
...PIKES PEAK/PALMER DIVIDE AND SOUTHERN FOOTHILLS...

CITY           SKY/WX    TMP DP  RH WIND       PRES   REMARKS
COLO. SPRINGS  PTSUNNY   73  36  25 S9        30.41F
A. F. ACADEMY  FAIR      70  39  32 S10       30.41F
SCHRIEVER AFB  NOT AVBL
ELLICOTT       NOT AVBL
FALCON         FAIR      70  35  27 S14       30.46F
FORT CARSON    FAIR      73  39  29 SE12      30.38F
LIMON          FAIR      76  38  25 S18G28    30.37F
MONUMENT HILL  FAIR      73  34  23 S20G25    30.43F
TRINIDAD       FAIR      79  25  13 S10       30.39F
$$

COZ042>045-048>051-090-091-292000-
...NORTHEAST COLORADO...

CITY           SKY/WX    TMP DP  RH WIND       PRES   REMARKS
GREELEY ARPT   FAIR      73  43  33 SE8       30.31F
AKRON          FAIR      76  40  27 SE23G29   30.33F
BURLINGTON     FAIR      74  40  29 S18G24    30.37F
WRAY           NOT AVBL
STERLING       FAIR      79  43  27 S14       30.29F
HOLYOKE        FAIR      79  43  27 SE15      30.34F
FORT MORGAN    FAIR      80  39  23 E13       30.31F
$$

COZ086-089-092>099-292000-
...SOUTHEAST COLORADO...

CITY           SKY/WX    TMP DP  RH WIND       PRES   REMARKS
PUEBLO         FAIR      73  40  30 SE5       30.33F
LA JUNTA       FAIR      76  41  28 VRB5      30.34F
LAMAR          FAIR      79  43  27 S12       30.32F
SPRINGFIELD      N/A     73  45  36 S20G25    30.38F
$$




USA.gov is the U.S. government's official web portal to all federal, state and local government web resources and services.